Weather History for Bursa, Turkey

Change the Weather History Date:

Sunday, February 9, 2014

  Actual Average Record
Temperature  
Mean Temperature 59 °F -  
Max Temperature 63 °F - - ()
Min Temperature 55 °F - - ()
Degree Days  
Heating Degree Days 6    
Growing Degree Days 9 (Base 50)    
Moisture  
Dew Point 41 °F    
Average Humidity 37    
Maximum Humidity 47    
Minimum Humidity 27    
Precipitation  
Precipitation 0.00 in - - ()
Sea Level Pressure  
Sea Level Pressure 30.00 in    
Wind  
Wind Speed 10 mph ()    
Max Wind Speed 17 mph    
Max Gust Speed -    
Visibility 12.0 miles    
Events      
T = Trace of Precipitation, MM = Missing Value Source: Averaged Metar Reports

Daily Weather History Graph

Daily Weather History Graph

Search for Another Location

Airport:

Trip Planner

Search our weather history database for the weather conditions in past years. The results will help you decide how hot, cold, wet, or windy it might be!

Date:

Astronomy

Feb. 09, 2014 Rise Set
Actual Time 7:04 AM EET 5:31 PM EET
Civil Twilight 6:36 AM EET 6:00 PM EET
Nautical Twilight 6:04 AM EET 6:32 PM EET
Astronomical Twilight 5:32 AM EET 7:03 PM EET
Moon 12:56 PM EET (2/9) 2:52 AM EET (2/9)
Length of Visible Light 11h 23m
Length of Day
10h 27m
Waxing Gibbous, 74% of the Moon is Illuminated
Feb 9
Waxing Gibbous
Feb 15
Full
Feb 22
Last Quarter
Mar 1
New
Mar 8
First Quarter

Hourly Weather History & Observations

Time (EET) Temp. Dew Point Humidity Pressure Visibility Wind Dir Wind Speed Gust Speed Precip Events Conditions
12:00 AM 61 °F 36 °F 27% 30.04 in 12 mi WSW 9.2 mph - -  
1:00 AM 58 °F 38 °F 35% 30.04 in 12 mi West 8.1 mph - -   Partly Cloudy
2:00 AM 60 °F 38 °F 32% 30.03 in 12 mi SW 12.7 mph - -   Scattered Clouds
3:00 AM 61 °F 38 °F 31% 30.01 in 12 mi SW 12.7 mph - -   Scattered Clouds
4:00 AM 60 °F 39 °F 35% 30.00 in 12 mi SSW 10.4 mph - -   Scattered Clouds
5:00 AM 59 °F 40 °F 37% 30.01 in 12 mi West 9.2 mph - -   Partly Cloudy
6:00 AM 60 °F 40 °F 35% 30.01 in 12 mi WSW 4.6 mph - -   Partly Cloudy
7:00 AM 58 °F 41 °F 42% 30.02 in 12 mi SW 6.9 mph - -   Partly Cloudy
8:00 AM 56 °F 41 °F 47% 30.04 in 12 mi WSW 5.8 mph - -   Partly Cloudy
9:00 AM 60 °F 42 °F 40% 30.04 in 12 mi SSW 8.1 mph - -   Partly Cloudy
10:00 AM 61 °F 43 °F 40% 30.05 in 12 mi WSW 6.9 mph - -   Partly Cloudy
11:00 AM 61 °F 42 °F 39% 30.05 in 12 mi SSW 15.0 mph - -   Partly Cloudy
12:00 PM 61 °F 43 °F 41% 30.04 in 12 mi SSW 13.8 mph - -   Partly Cloudy
1:00 PM 63 °F 44 °F 39% 30.01 in 12 mi SSW 12.7 mph - -   Partly Cloudy
2:00 PM 62 °F 44 °F 40% 29.99 in 12 mi SSW 17.3 mph - -   Partly Cloudy
3:00 PM 62 °F 43 °F 39% 29.99 in 12 mi SSW 16.1 mph - -   Partly Cloudy
4:00 PM 62 °F 43 °F 39% 29.98 in 12 mi SSW 16.1 mph - -   Partly Cloudy
5:00 PM 62 °F 43 °F 38% 29.97 in 12 mi SSW 12.7 mph - -   Partly Cloudy
6:00 PM 62 °F 42 °F 36% 29.96 in 12 mi SSW 12.7 mph - -   Partly Cloudy
7:00 PM 61 °F 42 °F 38% 29.96 in 12 mi SW 13.8 mph - -   Partly Cloudy
8:00 PM 62 °F 41 °F 35% 29.95 in 12 mi SW 15.0 mph - -   Partly Cloudy
9:00 PM 62 °F 42 °F 35% 29.95 in 12 mi SW 15.0 mph - -   Partly Cloudy
10:00 PM 62 °F 41 °F 35% 29.93 in 12 mi SSW 15.0 mph - -   Partly Cloudy
11:00 PM 62 °F 41 °F 35% 29.91 in 12 mi South 13.8 mph - -   Scattered Clouds